Regional Weather Roundup
Issued by NWS New Orleans/Baton Rouge, LA

Home | Current Version | Previous Version | Text Only | Print | Product List | Glossary On
Versions: 1 2 3 4 5 6 7 8 9 10 11 12 13 14 15 16 17 18 19 20 21 22 23 24 25 26 27 28 29 30 31 32 33 34 35 36 37 38 39 40 41 42 43 44 45 46 47 48 49 50
698
ASUS44 KLIX 260605
RWRLIX
NEW ORLEANS REGIONAL WEATHER ROUNDUP
NATIONAL WEATHER SERVICE NEW ORLEANS LA
1200 AM CST MON JAN 26 2015

NOTE: "FAIR" INDICATES FEW OR NO CLOUDS BELOW 12,000 FEET WITH NO
      SIGNIFICANT WEATHER AND/OR OBSTRUCTIONS TO VISIBILITY.
      SKY/WX - SKY CONDITION AND SIGNIFICANT WEATHER.
      TMP - AIR TEMPERATURE.     DP    - DEWPOINT TEMPERATURE.
      RH  - RELATIVE HUMIDITY.   PRES  - PRESSURE.
      HI  - HEAT INDEX.          WCI   - WIND CHILL INDEX.

*  THESE STATIONS ARE NOT NWS OR FAA STATIONS AND ARE NOT UNDER
   NWS QUALITY CONTROL.

LAZ038-040-048-061>063-065>067-069-260700-
SOUTHEAST LOUISIANA

CITY           SKY/WX    TMP DP  RH WIND       PRES   REMARKS
N.O. AUDUBON     N/A     54  43  64 MISG        N/A
6HR MIN TEMP:  52; 6HR MAX TEMP:  58;

N.O. INTL ARPT PTCLDY    51  41  68 W10       30.00R
6HR MIN TEMP:  51; 6HR MAX TEMP:  59;

N.O. LAKEFRONT CLEAR     56  45  66 W15       29.99R
6HR MIN TEMP:  56; 6HR MAX TEMP:  61;

N.O. DOWNTOWN*   N/A     55  37  50 W6        30.00S
SLIDELL        CLEAR     53  37  54 VRB3      29.97R
6HR MIN TEMP:  53; 6HR MAX TEMP:  60;

BATON ROUGE    CLEAR     55  31  39 NW12      30.01R
6HR MIN TEMP:  52; 6HR MAX TEMP:  60;

BOOTHVILLE     CLEAR     54  47  77 W13       30.00R
6HR MIN TEMP:  54; 6HR MAX TEMP:  61;

BELLE CHASSE   CLEAR     51  43  74 W3        29.99S
6HR MIN TEMP:  51; 6HR MAX TEMP:  59;

BOGALUSA*        N/A     46  37  71 W5        29.98R
6HR MIN TEMP:  44; 6HR MAX TEMP:  61;

GALLIANO*      CLEAR     52  46  80 MISG      30.02S
6HR MIN TEMP:  52; 6HR MAX TEMP:  60;

NEW ROADS*       N/A     52  33  47 NW9G16    30.02S
6HR MIN TEMP:  52; 6HR MAX TEMP:  60;

GONZALES*        N/A     56  32  41 NW5       30.00F
6HR MIN TEMP:  54; 6HR MAX TEMP:  60;

HAMMOND*       CLEAR     48  36  61 NW6       30.00R
HOUMA*         CLEAR     53  42  66 W7        30.02S
6HR MIN TEMP:  50; 6HR MAX TEMP:  57;

PORT FOURCHON* CLEAR     57  48  72 W14G22    30.06R

$$

MSZ070-080>082-260700-
SOUTHERN MISSISSIPPI

CITY           SKY/WX    TMP DP  RH WIND       PRES   REMARKS
MCCOMB         CLEAR     52  34  50 NW13      29.96R
6HR MIN TEMP:  52; 6HR MAX TEMP:  61;

GULFPORT       CLEAR     53  38  56 W7        29.95R
6HR MIN TEMP:  53; 6HR MAX TEMP:  59;

BILOXI         CLEAR     51  44  75 VRB1      29.94R
6HR MIN TEMP:  51; 6HR MAX TEMP:  57;

PASCAGOULA     CLEAR     51  40  65 W5        29.93R
6HR MIN TEMP:  51; 6HR MAX TEMP:  57;


$$

COASTAL OBSERVATIONS
LAKE AND NEARSHORE STATIONS

STATION/POSITION TIME  TEMP    WIND        PRES    WAVE
                       AIR SEA DIR/SP/G            HT/PER
                 (UTC) (F)     (DEG/KT/KT) (MB)    (FT/S)
PASCAGOULA       0600   54     270/  8/ 10 1013.0
WAVELAND YACHT   0600   54     290/  5/  7 1013.5
GRAND ISLE       0600   57 58  300/ 16/ 19 1016.5
SOUTHWEST PASS   0600   60 47  310/ 26/ 31 1015.9
NEW CANAL        0600   56 52  270/  9/ 12 1015.8
SHELL BEACH      0600   52 53  260/  9/ 10 1015.0

OFFSHORE STATIONS

STATION/POSITION TIME  TEMP    WIND        PRES    WAVE
                       AIR SEA DIR/SP/G            HT/PER
                 (UTC) (F)     (DEG/KT/KT) (MB)    (FT/S)
64 S DAUPHIN ISL 0452   63 71  290/ 25/ 29 1013.6    9/ 7

$$




USA.gov is the U.S. government's official web portal to all federal, state and local government web resources and services.